EJU801L LFKB-LFLL

Flight info

Callsign EJU801L
Flight time 0h 51m
Altitude 38000
Route MOULE L146 BTA G702 MILNO A3 SODRI G374 PERUS A3 RETNO Z42 PINED
Aircraft A320/M-SDE3FGHIRWY/LB1

Departure

Time 2026-04-25 14:50
Airport Bastia-Poretta International airport (LFKB)

Arrival

Time 2026-04-25 15:41
Airport Lyon Saint-Exupéry Airport (LFLL)
Time Latitude Longitude Altitude Speed Heading
2026-04-25 14:24 42.54778 9.48179 36 ft 0 kts 252°
2026-04-25 14:40 42.54778 9.48178 35 ft 0 kts 252°
2026-04-25 14:42 42.54787 9.48215 35 ft 4 kts 253°
2026-04-25 14:42 42.54793 9.48243 34 ft 4 kts 254°
2026-04-25 14:43 42.54796 9.48278 34 ft 4 kts 290°
2026-04-25 14:43 42.54782 9.48299 32 ft 3 kts 343°
2026-04-25 14:43 42.54768 9.48304 34 ft 1 kts 343°
2026-04-25 14:45 42.54772 9.48303 34 ft 3 kts 343°
2026-04-25 14:45 42.54816 9.48285 33 ft 8 kts 343°
2026-04-25 14:45 42.54867 9.48264 35 ft 7 kts 343°
2026-04-25 14:46 42.54911 9.48247 35 ft 6 kts 343°
2026-04-25 14:46 42.54950 9.48237 35 ft 5 kts
2026-04-25 14:46 42.54983 9.48237 35 ft 4 kts 359°
2026-04-25 14:46 42.55012 9.48225 35 ft 6 kts 342°
2026-04-25 14:47 42.55074 9.48199 35 ft 13 kts 343°
2026-04-25 14:47 42.55106 9.48186 34 ft 15 kts 343°
2026-04-25 14:47 42.55297 9.48107 35 ft 17 kts 343°
2026-04-25 14:47 42.55405 9.48062 35 ft 15 kts 343°
2026-04-25 14:48 42.55502 9.48020 35 ft 14 kts 342°
2026-04-25 14:48 42.55598 9.47980 32 ft 15 kts 342°
2026-04-25 14:48 42.55697 9.47939 30 ft 15 kts 343°
2026-04-25 14:48 42.55797 9.47896 27 ft 15 kts 342°
2026-04-25 14:49 42.55891 9.47861 28 ft 12 kts 356°
2026-04-25 14:49 42.55944 9.47929 25 ft 12 kts 73°
2026-04-25 14:49 42.55969 9.48034 25 ft 7 kts 71°
2026-04-25 14:49 42.55949 9.48088 26 ft 7 kts 156°
2026-04-25 14:50 42.55894 9.48109 28 ft 27 kts 163°
2026-04-25 14:50 42.55446 9.48298 35 ft 104 kts 162°
2026-04-25 14:50 42.54267 9.48818 266 ft 155 kts 159°
2026-04-25 14:50 42.53338 9.49419 1145 ft 150 kts 135°
2026-04-25 14:51 42.52908 9.50684 1796 ft 155 kts 91°
2026-04-25 14:51 42.53213 9.52160 2156 ft 176 kts 61°
2026-04-25 14:51 42.53811 9.53650 2492 ft 198 kts 62°
2026-04-25 14:51 42.54507 9.55398 2815 ft 223 kts 62°
2026-04-25 14:52 42.55280 9.57359 3279 ft 248 kts 62°
2026-04-25 14:52 42.56123 9.59511 3847 ft 266 kts 62°
2026-04-25 14:52 42.57001 9.61763 4723 ft 273 kts 62°
2026-04-25 14:52 42.57302 9.62537 5034 ft 275 kts 62°
2026-04-25 14:53 42.58850 9.66368 6523 ft 283 kts 53°
2026-04-25 14:53 42.60298 9.68176 7362 ft 286 kts 28°
2026-04-25 14:53 42.62163 9.69052 8229 ft 286 kts
2026-04-25 14:53 42.64136 9.68830 9111 ft 286 kts 340°
2026-04-25 14:54 42.65864 9.67519 9977 ft 288 kts 316°
2026-04-25 14:54 42.67042 9.65330 10764 ft 290 kts 298°
2026-04-25 14:54 42.68101 9.62983 11562 ft 293 kts 303°
2026-04-25 14:54 42.69286 9.60705 12365 ft 297 kts 306°
2026-04-25 14:55 42.70507 9.58419 13160 ft 301 kts 305°
2026-04-25 14:55 42.71725 9.56084 13922 ft 306 kts 304°
2026-04-25 14:55 42.72994 9.53623 14143 ft 329 kts 304°
2026-04-25 14:55 42.74352 9.50985 14281 ft 352 kts 304°
2026-04-25 14:56 42.75296 9.49153 14487 ft 361 kts 304°
2026-04-25 14:56 42.76754 9.46325 15042 ft 368 kts 304°
2026-04-25 14:56 42.78229 9.43468 15658 ft 373 kts 304°
2026-04-25 14:56 42.79732 9.40560 16286 ft 377 kts 304°
2026-04-25 14:57 42.81246 9.37625 16926 ft 381 kts 304°
2026-04-25 14:57 42.82777 9.34651 17573 ft 385 kts 303°
2026-04-25 14:57 42.84320 9.31645 18206 ft 389 kts 303°
2026-04-25 14:57 42.85880 9.28607 18761 ft 393 kts 303°
2026-04-25 14:58 42.87455 9.25546 19315 ft 395 kts 303°
2026-04-25 14:58 42.88909 9.22361 19868 ft 396 kts 295°
2026-04-25 14:58 42.89856 9.19228 20368 ft 397 kts 286°
2026-04-25 14:58 42.90474 9.15564 20908 ft 398 kts 279°
2026-04-25 14:59 42.90970 9.11839 21448 ft 400 kts 279°
2026-04-25 14:59 42.91472 9.08090 21974 ft 402 kts 279°
2026-04-25 14:59 42.91950 9.04530 22463 ft 405 kts 279°
2026-04-25 14:59 42.92461 9.00741 22978 ft 407 kts 279°
2026-04-25 15:00 42.92972 8.96928 23478 ft 409 kts 279°
2026-04-25 15:00 42.93485 8.93097 23920 ft 412 kts 279°
2026-04-25 15:00 42.94000 8.89241 24338 ft 414 kts 279°
2026-04-25 15:00 42.94513 8.85358 24744 ft 416 kts 279°
2026-04-25 15:01 42.95020 8.81458 25137 ft 418 kts 279°
2026-04-25 15:01 42.95529 8.77532 25521 ft 421 kts 280°
2026-04-25 15:01 42.96062 8.73645 25890 ft 423 kts 281°
2026-04-25 15:01 42.96631 8.69688 26265 ft 426 kts 281°
2026-04-25 15:02 42.97218 8.65716 26639 ft 428 kts 281°
2026-04-25 15:02 42.97811 8.61721 27010 ft 431 kts 281°
2026-04-25 15:02 42.98403 8.57692 27367 ft 433 kts 281°
2026-04-25 15:02 42.98982 8.53695 27712 ft 436 kts 281°
2026-04-25 15:03 42.99559 8.49622 28066 ft 438 kts 281°
2026-04-25 15:03 43.00137 8.45517 28394 ft 441 kts 281°
2026-04-25 15:03 43.00718 8.41396 28714 ft 443 kts 282°
2026-04-25 15:03 43.01512 8.37320 29027 ft 445 kts 290°
2026-04-25 15:04 43.02762 8.33442 29339 ft 447 kts 298°
2026-04-25 15:04 43.04235 8.29693 29644 ft 449 kts 298°
2026-04-25 15:04 43.05712 8.25917 29957 ft 451 kts 298°
2026-04-25 15:04 43.07188 8.22120 30254 ft 453 kts 298°
2026-04-25 15:05 43.08660 8.18319 30624 ft 452 kts 298°
2026-04-25 15:05 43.10127 8.14515 31013 ft 451 kts 298°
2026-04-25 15:05 43.11585 8.10725 31400 ft 449 kts 297°
2026-04-25 15:06 43.14491 8.03185 32176 ft 446 kts 297°
2026-04-25 15:06 43.15939 7.99426 32563 ft 445 kts 297°
2026-04-25 15:06 43.17380 7.95678 32955 ft 444 kts 297°
2026-04-25 15:06 43.18815 7.91941 33335 ft 443 kts 297°
2026-04-25 15:07 43.20251 7.88212 33721 ft 441 kts 297°
2026-04-25 15:07 43.21682 7.84490 34099 ft 440 kts 297°
2026-04-25 15:07 43.23105 7.80780 34420 ft 439 kts 297°
2026-04-25 15:07 43.24523 7.77067 34739 ft 439 kts 297°
2026-04-25 15:08 43.25933 7.73364 35048 ft 438 kts 297°
2026-04-25 15:08 43.27343 7.69664 35341 ft 437 kts 296°
2026-04-25 15:08 43.28731 7.66014 35621 ft 437 kts 296°
2026-04-25 15:08 43.30134 7.62320 35907 ft 436 kts 296°
2026-04-25 15:09 43.31492 7.58598 36191 ft 435 kts 295°
2026-04-25 15:09 43.32783 7.54840 36456 ft 435 kts 294°
2026-04-25 15:09 43.35179 7.47549 36953 ft 433 kts 293°
2026-04-25 15:10 43.36412 7.43775 37208 ft 433 kts 293°
2026-04-25 15:10 43.37655 7.40005 37452 ft 433 kts 294°
2026-04-25 15:10 43.40144 7.32571 37930 ft 432 kts 294°
2026-04-25 15:11 43.41404 7.28826 38070 ft 432 kts 294°
2026-04-25 15:11 43.43924 7.21310 38089 ft 432 kts 294°
2026-04-25 15:12 43.48029 7.10348 38086 ft 433 kts 306°
2026-04-25 15:12 43.50773 7.06288 38082 ft 435 kts 319°
2026-04-25 15:13 43.59405 6.96776 38088 ft 436 kts 320°
2026-04-25 15:14 43.64139 6.91545 38095 ft 436 kts 320°
2026-04-25 15:14 43.68778 6.86407 38099 ft 435 kts 320°
2026-04-25 15:15 43.73502 6.81175 38106 ft 435 kts 319°
2026-04-25 15:15 43.78168 6.75990 38102 ft 434 kts 319°
2026-04-25 15:16 43.82874 6.70746 38098 ft 434 kts 319°
2026-04-25 15:16 43.89136 6.61833 38086 ft 431 kts 304°
2026-04-25 15:17 43.94312 6.51729 38082 ft 431 kts 304°
2026-04-25 15:18 43.97782 6.44939 38079 ft 431 kts 304°
2026-04-25 15:18 44.02979 6.34749 38074 ft 431 kts 304°
2026-04-25 15:19 44.05271 6.30238 38071 ft 431 kts 304°
2026-04-25 15:19 44.09885 6.21123 38062 ft 431 kts 304°
2026-04-25 15:20 44.13332 6.14300 38058 ft 431 kts 304°
2026-04-25 15:20 44.16759 6.07463 38056 ft 430 kts 303°
2026-04-25 15:21 44.18408 6.04046 37867 ft 432 kts 302°
2026-04-25 15:21 44.20062 6.00547 37310 ft 431 kts 302°
2026-04-25 15:21 44.21697 5.97056 36792 ft 430 kts 302°
2026-04-25 15:21 44.23329 5.93562 36253 ft 430 kts 302°
2026-04-25 15:22 44.24967 5.90067 35747 ft 431 kts 302°
2026-04-25 15:22 44.26611 5.86568 35245 ft 432 kts 302°
2026-04-25 15:22 44.28262 5.83063 34758 ft 432 kts 302°
2026-04-25 15:22 44.29917 5.79551 34181 ft 434 kts 302°
2026-04-25 15:23 44.31573 5.76031 33465 ft 435 kts 302°
2026-04-25 15:23 44.33237 5.72491 32672 ft 436 kts 302°
2026-04-25 15:23 44.34995 5.69092 31902 ft 438 kts 310°
2026-04-25 15:23 44.37181 5.66116 31145 ft 441 kts 320°
2026-04-25 15:24 44.39738 5.63726 30414 ft 444 kts 330°
2026-04-25 15:24 44.42585 5.62027 29612 ft 447 kts 341°
2026-04-25 15:24 44.45616 5.61088 28787 ft 447 kts 351°
2026-04-25 15:24 44.46662 5.60917 28510 ft 446 kts 352°
2026-04-25 15:25 44.51759 5.60104 27197 ft 441 kts 351°
2026-04-25 15:25 44.54796 5.59612 26434 ft 438 kts 352°
2026-04-25 15:25 44.57812 5.59118 25691 ft 435 kts 352°
2026-04-25 15:25 44.60809 5.58627 24968 ft 432 kts 351°
2026-04-25 15:26 44.63789 5.58133 24270 ft 430 kts 351°
2026-04-25 15:26 44.66749 5.57637 23566 ft 427 kts 351°
2026-04-25 15:26 44.69689 5.57147 22779 ft 424 kts 352°
2026-04-25 15:26 44.72593 5.56664 22199 ft 417 kts 352°
2026-04-25 15:27 44.75455 5.56190 21601 ft 412 kts 352°
2026-04-25 15:27 44.78282 5.55722 21002 ft 406 kts 352°
2026-04-25 15:27 44.83813 5.54809 19894 ft 396 kts 352°
2026-04-25 15:28 44.86539 5.54354 19345 ft 392 kts 352°
2026-04-25 15:28 44.89229 5.53906 18806 ft 387 kts 352°
2026-04-25 15:28 44.91893 5.53461 18269 ft 384 kts 352°
2026-04-25 15:28 44.94533 5.53020 17660 ft 380 kts 352°
2026-04-25 15:29 44.97156 5.52583 17064 ft 378 kts 352°
2026-04-25 15:29 44.99758 5.52162 16474 ft 376 kts 354°
2026-04-25 15:29 45.02369 5.52085 15898 ft 374 kts 359°
2026-04-25 15:29 45.04966 5.52071 15334 ft 372 kts 359°
2026-04-25 15:30 45.07550 5.52053 14774 ft 370 kts 359°
2026-04-25 15:30 45.10112 5.52032 14230 ft 367 kts 359°
2026-04-25 15:30 45.12660 5.52010 13674 ft 365 kts 359°
2026-04-25 15:30 45.15193 5.51990 13070 ft 363 kts 359°
2026-04-25 15:31 45.17700 5.51796 12477 ft 359 kts 350°
2026-04-25 15:31 45.20042 5.50649 11893 ft 357 kts 332°
2026-04-25 15:31 45.22047 5.48584 11326 ft 356 kts 322°
2026-04-25 15:31 45.23946 5.46346 10762 ft 353 kts 322°
2026-04-25 15:32 45.25821 5.44123 10253 ft 349 kts 322°
2026-04-25 15:32 45.27658 5.41939 9782 ft 338 kts 322°
2026-04-25 15:32 45.29422 5.39836 9287 ft 328 kts 321°
2026-04-25 15:33 45.32829 5.35770 8699 ft 310 kts 321°
2026-04-25 15:33 45.34461 5.33828 8462 ft 301 kts 321°
2026-04-25 15:33 45.36043 5.31943 8268 ft 292 kts 321°
2026-04-25 15:33 45.37576 5.30111 8061 ft 284 kts 321°
2026-04-25 15:34 45.39035 5.28361 7775 ft 271 kts 321°
2026-04-25 15:34 45.40467 5.26648 7424 ft 261 kts 321°
2026-04-25 15:34 45.41834 5.25016 7059 ft 252 kts 321°
2026-04-25 15:34 45.42268 5.24499 6939 ft 249 kts 321°
2026-04-25 15:35 45.45666 5.20438 5951 ft 230 kts 321°
2026-04-25 15:35 45.46870 5.18997 5572 ft 223 kts 321°
2026-04-25 15:35 45.48054 5.17576 5237 ft 223 kts 321°
2026-04-25 15:36 45.50421 5.14738 4823 ft 220 kts 321°
2026-04-25 15:36 45.51579 5.13347 4633 ft 213 kts 322°
2026-04-25 15:36 45.52731 5.12097 4456 ft 204 kts 334°
2026-04-25 15:37 45.54070 5.11561 4160 ft 201 kts 353°
2026-04-25 15:37 45.55452 5.11369 3881 ft 195 kts 355°
2026-04-25 15:37 45.56781 5.11212 3618 ft 190 kts 355°
2026-04-25 15:37 45.58049 5.11060 3363 ft 173 kts 355°
2026-04-25 15:38 45.59201 5.10920 3149 ft 161 kts 355°
2026-04-25 15:38 45.60294 5.10788 2958 ft 153 kts 355°
2026-04-25 15:38 45.60981 5.10705 2808 ft 146 kts 355°
2026-04-25 15:38 45.61962 5.10587 2621 ft 138 kts 354°
2026-04-25 15:39 45.62908 5.10472 2449 ft 135 kts 354°
2026-04-25 15:39 45.63839 5.10359 2273 ft 134 kts 356°
2026-04-25 15:39 45.64758 5.10248 2094 ft 134 kts 354°
2026-04-25 15:39 45.65680 5.10137 1917 ft 132 kts 354°
2026-04-25 15:40 45.66300 5.10061 1800 ft 132 kts 354°
2026-04-25 15:40 45.67212 5.09951 1627 ft 134 kts 354°
2026-04-25 15:40 45.68449 5.09800 1385 ft 134 kts 358°
2026-04-25 15:40 45.69377 5.09688 1214 ft 133 kts 356°
2026-04-25 15:41 45.70298 5.09576 1031 ft 131 kts 356°
2026-04-25 15:41 45.71207 5.09468 856 ft 131 kts 356°
2026-04-25 15:41 45.72026 5.09379 820 ft 97 kts 355°
2026-04-25 15:41 45.72527 5.09317 811 ft 47 kts 355°
2026-04-25 15:42 45.72745 5.09268 804 ft 28 kts 340°
2026-04-25 15:42 45.72904 5.09137 800 ft 22 kts 328°
2026-04-25 15:42 45.72972 5.09015 794 ft 18 kts 277°
2026-04-25 15:42 45.72963 5.08818 791 ft 21 kts 264°
2026-04-25 15:43 45.72948 5.08624 792 ft 18 kts 264°
2026-04-25 15:43 45.72940 5.08452 790 ft 15 kts 261°
2026-04-25 15:43 45.72878 5.08357 790 ft 13 kts 198°
2026-04-25 15:43 45.72796 5.08356 791 ft 11 kts 174°
2026-04-25 15:44 45.72724 5.08367 791 ft 10 kts 173°
2026-04-25 15:44 45.72663 5.08376 792 ft 8 kts 176°
2026-04-25 15:44 45.72613 5.08381 793 ft 9 kts 176°
2026-04-25 15:44 45.72529 5.08389 796 ft 16 kts 177°
2026-04-25 15:45 45.72399 5.08407 797 ft 18 kts 173°
2026-04-25 15:45 45.72286 5.08422 799 ft 15 kts 176°
2026-04-25 15:45 45.72188 5.08432 801 ft 13 kts 175°
2026-04-25 15:45 45.72134 5.08439 802 ft 11 kts 175°
2026-04-25 15:46 45.72021 5.08454 802 ft 16 kts 177°
2026-04-25 15:46 45.71899 5.08469 802 ft 18 kts 174°
2026-04-25 15:46 45.71782 5.08482 802 ft 16 kts 175°
2026-04-25 15:46 45.71675 5.08493 802 ft 15 kts 175°
2026-04-25 15:47 45.71577 5.08506 803 ft 14 kts 174°
2026-04-25 15:47 45.71489 5.08519 804 ft 11 kts 174°
2026-04-25 15:47 45.71436 5.08505 807 ft 7 kts 209°
2026-04-25 15:47 45.71413 5.08420 805 ft 13 kts 267°
2026-04-25 15:48 45.71412 5.08285 803 ft 14 kts 282°
2026-04-25 15:48 45.71437 5.08158 802 ft 10 kts 303°
2026-04-25 15:48 45.71494 5.08168 802 ft 7 kts 15°
2026-04-25 15:48 45.71514 5.08176 802 ft 2 kts 14°
2026-04-25 15:49 45.71517 5.08177 802 ft 0 kts 14°